Regional Weather Roundup
Issued by NWS

Home | Current Version | Previous Version | Graphics & Text | Print | Product List | Glossary On
Versions: 1 2 3 4 5 6 7 8 9 10 11 12 13 14 15 16 17 18 19 20 21 22 23 24 25 26 27 28 29 30 31 32 33 34 35 36 37 38 39 40 41 42 43 44 45 46 47 48 49 50
000
ASUS43 KTOP 251308
RWRKS

WEATHER ROUNDUP FOR KANSAS
NATIONAL WEATHER SERVICE GOODLAND KS
800 AM CDT SAT APR 25 2015

NOTE:  "FAIR" INDICATES FEW OR NO CLOUDS BELOW 12,000 FEET WITH NO
SIGNIFICANT WEATHER AND/OR OBSTRUCTIONS TO VISIBILITY.

KSZ001>006-013>018-027>032-041>047-251400-
NORTHWEST KANSAS

CITY           SKY/WX    TMP DP  RH WIND       PRES   REMARKS
GOODLAND       SUNNY     46  40  79 NW10      29.67R
HAYS           MOSUNNY   54  45  71 NW12      29.59R
HILL CITY      PTSUNNY   54  48  80 NW13      29.60R
RUSSELL        MOSUNNY   54  49  83 W14       29.55R
$$

KSZ061>065-074>080-084>089-251400-
SOUTHWEST KANSAS

CITY           SKY/WX    TMP DP  RH WIND       PRES   REMARKS
DODGE CITY     MOSUNNY   52  43  71 W14       29.63R
ELKHART          N/A     49  31  50 W12         N/A
GARDEN CITY    SUNNY     50  42  74 W14       29.65R
GREAT BEND     MOSUNNY   52  46  82 W6        29.58R
LIBERAL        SUNNY     48  39  71 W9        29.70R
$$

KSZ066>073-081>083-090>101-251400-
SOUTHEAST KANSAS

CITY           SKY/WX    TMP DP  RH WIND       PRES   REMARKS
CHANUTE        SUNNY     61  53  75 W18G24    29.48R
COFFEYVILLE    SUNNY     61  53  75 W13       29.52R
HUTCHINSON     MOSUNNY   57  50  77 W12       29.54R
MEDICINE LODGE   N/A     57  49  74 W7        29.58R
NEWTON         MOSUNNY   54  48  82 W12       29.54R
PARSONS        SUNNY     62  54  74 SW12      29.52R
WICHITA INTL   PTSUNNY   59  52  77 W13       29.54R
WICHITA JABRA  MOSUNNY   57  52  83 W10       29.54R
WICHITA MCCONL MOSUNNY   59  52  79 SW9       29.54R
WINFIELD       MOSUNNY   57  51  80 W12       29.57R
$$

KSZ007>012-019>026-033>040-048>060-102>105-251400-
NORTHEAST KANSAS

CITY           SKY/WX    TMP DP  RH WIND       PRES   REMARKS
CONCORDIA      LGT RAIN  55  53  93 NW10      29.49R
EMPORIA        MOSUNNY   56  53  90 W8        29.47R
LAWRENCE       PTSUNNY   57  54  89 SE3       29.41F
MANHATTAN      CLOUDY    57  55  93 W8        29.43R
MARYSVILLE     RAIN      55  54  94 N15       29.43R
OLATHE IND     LGT RAIN  56  55  97 NW6       29.44R
OLATHE EXE     RAIN      56  55  97 NW7       29.42R FOG
SALINA         CLOUDY    56  51  84 NW10      29.52R
TOPEKA BILLARD CLOUDY    57  54  89 SW8       29.41F
TOPEKA FORBES  PTSUNNY   58  54  86 SW6       29.41F
$$



USA.gov is the U.S. government's official web portal to all federal, state and local government web resources and services.